Weather History for Grand Island, NE

Change the Weather History Date:

Wednesday, December 14, 2011

  Actual Average Record
Temperature  
Mean Temperature 36 °F 26 °F  
Max Temperature 43 °F 37 °F 70 °F (1921)
Min Temperature 29 °F 16 °F -17 °F (1901)
Degree Days  
Heating Degree Days 29 39  
Month to date heating degree days 590 515  
Since 1 July heating degree days 1833 1845  
Cooling Degree Days 0 0  
Month to date cooling degree days 0 0  
Year to date cooling degree days 1112 1034  
Moisture  
Dew Point 36 °F    
Average Humidity 90    
Maximum Humidity 100    
Minimum Humidity 79    
Precipitation  
Precipitation 0.06 in 0.02 in 1.01 in (1974)
Month to date precipitation 1.06 0.33  
Year to date precipitation 27.11 26.36  
Snow  
Snow 0.00 in 0.20 in 11.10 in (1974)
Month to date snowfall 7.8 2.2  
Since 1 July snowfall 7.8 6.4  
Snow Depth -    
Sea Level Pressure  
Sea Level Pressure 29.80 in    
Wind  
Wind Speed 8 mph (SSW)    
Max Wind Speed 16 mph    
Max Gust Speed 21 mph    
Visibility 4 miles    
Events Fog , Rain    
T = Trace of Precipitation, MM = Missing Value Source: NWS Daily Summary

Daily Weather History Graph

Daily Weather History Graph

Search for Another Location

Airport:

Trip Planner

Search our weather history database for the weather conditions in past years. The results will help you decide how hot, cold, wet, or windy it might be!

Date:

Astronomy

Dec. 14, 2011 Rise Set
Actual Time 7:50 AM CST 5:05 PM CST
Civil Twilight 7:19 AM CST 5:36 PM CST
Nautical Twilight 6:44 AM CST 6:11 PM CST
Astronomical Twilight 6:11 AM CST 6:44 PM CST
Moon 9:28 PM CST (12/14) 10:34 AM CST (12/14)
Length of Visible Light 10h 17m
Length of Day
9h 15m
Waning Gibbous, 83% of the Moon is Illuminated
Dec 14
Waning Gibbous
Dec 17
Last Quarter
Dec 24
New
Jan 1
First Quarter
Jan 9
Full

Hourly Weather History & Observations

Time (CST) Temp. Windchill Dew Point Humidity Pressure Visibility Wind Dir Wind Speed Gust Speed Precip Events Conditions
12:23 AM 37.4 °F 31.4 °F 35.6 °F 93% 29.92 in 4.0 mi SSW 8.1 mph - N/A   Overcast
12:53 AM 37.9 °F 32.1 °F 36.0 °F 93% 29.96 in 5.0 mi South 8.1 mph - N/A   Overcast
1:02 AM 37.4 °F 31.4 °F 35.6 °F 93% 29.92 in 5.0 mi South 8.1 mph - N/A   Overcast
1:53 AM 37.9 °F 30.9 °F 36.0 °F 93% 29.93 in 8.0 mi South 10.4 mph - N/A   Overcast
2:53 AM 39.0 °F 31.4 °F 37.0 °F 93% 29.91 in 6.0 mi South 12.7 mph - N/A   Overcast
3:06 AM 37.4 °F 30.8 °F 37.4 °F 100% 29.86 in 5.0 mi South 9.2 mph - N/A   Overcast
3:17 AM 37.4 °F 31.4 °F 37.4 °F 100% 29.85 in 1.8 mi South 8.1 mph - N/A   Overcast
3:30 AM 37.4 °F 31.4 °F 37.4 °F 100% 29.85 in 0.5 mi South 8.1 mph - N/A Fog Fog
3:53 AM 37.9 °F 34.4 °F 37.0 °F 97% 29.89 in 0.5 mi SSW 4.6 mph - N/A Fog Fog
4:53 AM 37.0 °F 31.6 °F 36.0 °F 96% 29.85 in 0.5 mi SSE 6.9 mph - N/A Fog Fog
5:03 AM 37.4 °F 32.1 °F 35.6 °F 93% 29.81 in 0.2 mi South 6.9 mph - N/A Fog Fog
5:11 AM 37.4 °F 33.8 °F 35.6 °F 93% 29.81 in 0.5 mi SSW 4.6 mph - N/A Fog Fog
5:48 AM 37.4 °F 32.8 °F 37.4 °F 100% 29.80 in 1.2 mi South 5.8 mph - N/A   Overcast
5:53 AM 37.9 °F 33.5 °F 37.0 °F 97% 29.84 in 2.0 mi South 5.8 mph - N/A   Overcast
6:02 AM 37.4 °F 33.8 °F 37.4 °F 100% 29.78 in 1.2 mi SSE 4.6 mph - N/A   Overcast
6:17 AM 37.4 °F 32.8 °F 37.4 °F 100% 29.79 in 0.8 mi South 5.8 mph - N/A   Overcast
6:53 AM 37.9 °F 34.4 °F 37.0 °F 97% 29.82 in 0.8 mi SSE 4.6 mph - N/A   Mist
7:03 AM 39.2 °F 35.0 °F 37.4 °F 93% 29.78 in 2.5 mi South 5.8 mph - N/A   Overcast
7:11 AM 39.2 °F 37.0 °F 37.4 °F 93% 29.77 in 4.0 mi SSE 3.5 mph - N/A   Overcast
7:53 AM 39.0 °F 34.8 °F 37.9 °F 96% 29.81 in 4.0 mi South 5.8 mph - N/A   Overcast
8:12 AM 39.2 °F 34.2 °F 37.4 °F 93% 29.77 in 2.0 mi South 6.9 mph - N/A   Overcast
8:29 AM 39.2 °F 37.0 °F 37.4 °F 93% 29.77 in 1.8 mi South 3.5 mph - N/A   Overcast
8:40 AM 39.2 °F 37.0 °F 37.4 °F 93% 29.77 in 2.0 mi SSE 3.5 mph - 0.00 in Rain Light Rain
8:44 AM 39.2 °F 35.9 °F 37.4 °F 93% 29.76 in 1.8 mi SE 4.6 mph - 0.00 in Rain Light Rain
8:53 AM 39.0 °F 35.7 °F 37.9 °F 96% 29.79 in 1.8 mi SSE 4.6 mph - 0.01 in Rain Light Rain
9:00 AM 39.2 °F 35.0 °F 37.4 °F 93% 29.75 in 2.5 mi SE 5.8 mph - 0.00 in   Overcast
9:13 AM 39.2 °F 35.0 °F 37.4 °F 93% 29.75 in 3.0 mi SSE 5.8 mph - 0.00 in   Overcast
9:33 AM 39.2 °F 34.2 °F 37.4 °F 93% 29.76 in 1.8 mi SSW 6.9 mph - 0.00 in Rain Light Rain
9:51 AM 39.9 °F 36.7 °F 39.0 °F 97% 29.78 in 2.5 mi South 4.6 mph - 0.02 in Rain Light Rain
9:58 AM 39.2 °F 34.2 °F 39.2 °F 100% 29.73 in 3.0 mi SSE 6.9 mph - 0.00 in   Overcast
10:07 AM 39.2 °F 32.5 °F 39.2 °F 100% 29.72 in 2.5 mi SSE 10.4 mph - 0.00 in   Overcast
10:12 AM 39.2 °F 31.6 °F 39.2 °F 100% 29.72 in 3.0 mi SSE 12.7 mph - 0.00 in   Overcast
10:21 AM 39.2 °F 32.0 °F 39.2 °F 100% 29.73 in 2.5 mi SSE 11.5 mph - 0.00 in   Overcast
10:33 AM 41.0 °F 35.2 °F 39.2 °F 93% 29.72 in 1.5 mi SSE 9.2 mph - 0.00 in   Overcast
10:53 AM 41.0 °F 37.1 °F 39.9 °F 96% 29.76 in 1.0 mi WNW 5.8 mph - 0.00 in   Overcast
11:11 AM 37.4 °F 30.8 °F 37.4 °F 100% 29.74 in 0.5 mi NW 9.2 mph - N/A Fog Fog
11:36 AM 37.4 °F 30.8 °F 35.6 °F 93% 29.75 in 1.2 mi NW 9.2 mph - 0.01 in Rain Light Rain
11:49 AM 37.4 °F 32.1 °F 35.6 °F 93% 29.74 in 2.5 mi NW 6.9 mph - 0.02 in Rain Light Rain
11:53 AM 37.9 °F 32.7 °F 37.0 °F 97% 29.77 in 2.5 mi NW 6.9 mph - 0.02 in   Overcast
12:03 PM 37.4 °F 31.4 °F 35.6 °F 93% 29.73 in 3.0 mi NW 8.1 mph - N/A   Overcast
12:31 PM 37.4 °F 33.8 °F 37.4 °F 100% 29.72 in 3.0 mi NW 4.6 mph - 0.01 in   Overcast
12:48 PM 39.2 °F - 37.4 °F 93% 29.71 in 3.0 mi Calm Calm - 0.01 in   Overcast
12:53 PM 39.0 °F 36.8 °F 37.9 °F 96% 29.74 in 3.0 mi Variable 3.5 mph - 0.01 in   Overcast
1:53 PM 41.0 °F 35.8 °F 39.0 °F 93% 29.72 in 10.0 mi West 8.1 mph - N/A   Overcast
2:15 PM 42.8 °F 37.5 °F 39.2 °F 87% 29.70 in 10.0 mi West 9.2 mph - N/A   Mostly Cloudy
2:53 PM 43.0 °F 37.7 °F 39.0 °F 86% 29.73 in 10.0 mi West 9.2 mph - N/A   Mostly Cloudy
3:51 PM 42.8 °F 37.5 °F 37.4 °F 81% 29.73 in 10.0 mi WNW 9.2 mph - N/A   Mostly Cloudy
3:53 PM 42.1 °F 36.6 °F 37.0 °F 82% 29.76 in 10.0 mi WNW 9.2 mph - N/A   Mostly Cloudy
3:55 PM 42.8 °F 36.6 °F 37.4 °F 81% 29.73 in 6.0 mi WNW 11.5 mph - N/A   Haze
4:53 PM 39.0 °F 33.4 °F 34.0 °F 82% 29.79 in 7.0 mi West 8.1 mph - N/A   Clear
5:53 PM 36.0 °F 31.1 °F 32.0 °F 86% 29.84 in 7.0 mi NW 5.8 mph - N/A   Clear
6:53 PM 34.0 °F 26.0 °F 30.9 °F 89% 29.87 in 6.0 mi NW 10.4 mph - N/A   Clear
7:53 PM 35.1 °F 25.5 °F 30.0 °F 82% 29.91 in 9.0 mi NW 15.0 mph - N/A   Clear
8:53 PM 33.1 °F 24.9 °F 28.0 °F 82% 29.94 in 8.0 mi NW 10.4 mph - N/A   Clear
9:53 PM 30.0 °F 22.4 °F 26.1 °F 85% 29.96 in 6.0 mi WNW 8.1 mph - N/A   Clear
10:53 PM 30.9 °F 22.8 °F 26.1 °F 82% 29.96 in 9.0 mi West 9.2 mph - N/A   Clear
11:53 PM 30.9 °F 21.2 °F 26.1 °F 82% 29.99 in 10.0 mi WNW 12.7 mph - N/A   Clear